User: anonymous   Login
Location: Unspecified
(0.0000°N, 0.0000°E)
Time: 03:33:38
(UTC+00:00)
Language:

Tiangong 1 - Orbit

View from above orbital plane
View from above orbital plane
View from above satellite
View from above satellite

Ground track
Ground track

The orbit data is extracted from the following two-line orbital elements,

1 37820U 11053A   16152.77569572  .00014403  00000-0  15910-3 0  9994
2 37820  42.7641 345.4519 0015009 289.7569 195.4200 15.62736802268016
Epoch (UTC): 31 May 2016 18:37:00
Eccentricity: 0.0015009
inclination: 42.7641°
perigee height: 369 km
apogee height: 390 km
right ascension of ascending node: 345.4519°
argument of perigee: 289.7569°
revolutions per day: 15.62736802
mean anomaly at epoch: 195.4200°
orbit number at epoch: 26801

The dashed part of the orbit path shows where the satellite is in the earth's shadow,  

DLR